Regional Weather Roundup
Issued by NWS

Home | Current Version | Previous Version | Graphics & Text | Print | Product List | Glossary On
Versions: 1 2 3 4 5 6 7 8 9 10 11 12 13 14 15 16 17 18 19 20 21 22 23 24 25 26 27 28 29 30 31 32 33 34 35 36 37 38 39 40 41 42 43 44 45 46 47 48 49 50
869
ASUS43 KMKX 140710
RWRWI

WISCONSIN REGIONAL WEATHER ROUNDUP
NATIONAL WEATHER SERVICE MILWAUKEE/SULLIVAN WI
100 AM CST SUN FEB 14 2016

NOTE: "FAIR" INDICATES FEW OR NO CLOUDS BELOW 12,000 FEET WITH NO
SIGNIFICANT WEATHER AND/OR OBSTRUCTIONS TO VISIBILITY.

WIZ001-002-006>008-014>016-023>028-140800-
NORTHWEST WISCONSIN

CITY           SKY/WX    TMP DP  RH WIND       PRES   REMARKS
SUPERIOR ARPT  CLOUDY    -9 -13  85 CALM      30.33F
ASHLAND        CLOUDY   -15 -19  82 S3        30.34F
HAYWARD        CLOUDY   -16 -23  70 CALM      30.30F
SIREN          CLOUDY   -11 -17  72 CALM      30.30F
CUMBERLAND     CLOUDY    -4 -15  59 SE9       30.28F WCI -20
RICE LAKE      CLOUDY    -3 -14  60 E6        30.33F WCI -15
CHETEK         CLOUDY    -6 -15  64 SE3       30.33F
LADYSMITH      PTCLDY   -11 -17  72 E3        30.34F
EAU CLAIRE     CLOUDY    -8 -13  78 NE5       30.33F WCI -19
MENOMONIE      CLOUDY    -3 -13  61 SE3       30.33F
NEW RICHMOND   CLOUDY     2  -9  58 SE6       30.29F WCI  -9
OSCEOLA        CLOUDY     4  -8  58 E7        30.32F WCI  -8
$$

WIZ003>005-009-010-017-018-140800-
NORTH CENTRAL WISCONSIN

CITY           SKY/WX    TMP DP  RH WIND       PRES   REMARKS
MANITOWISH WTR CLOUDY   -21 -27  74 CALM      30.29F
ARBOR VITAE    CLOUDY   -14 -19  76 CALM      30.30S
WOODRUFF       CLOUDY   -14 -19  76 CALM      30.30S
RHINELANDER    CLOUDY   -14 -19  79 CALM      30.31S
EAGLE RIVER    CLOUDY   -17 -24  70 CALM      30.29F
LAND O LAKES   CLOUDY   -22 -28  73 CALM      30.30F
PHILLIPS       CLOUDY   -20 -25  77 CALM      30.29F
TOMAHAWK       CLOUDY   -19 -25  74 CALM      30.32S
MEDFORD        PTCLDY   -14 -19  76 SE3       30.30F
MERRILL        CLOUDY   -16 -22  76 CALM      30.35F
$$

WIZ029-030-035-036-043>047-140800-
CENTRAL WISCONSIN

CITY           SKY/WX    TMP DP  RH WIND       PRES   REMARKS
WAUSAU         PTCLDY   -10 -15  78 E3        30.35F
MOSINEE        PTCLDY    -8 -13  77 CALM      30.36S
MARSHFIELD     CLOUDY    -4 -12  68 CALM      30.33F
STEVENS POINT  CLOUDY   -12 -17  77 CALM      30.38F
WAUPACA        CLOUDY    -8 -14  74 CALM      30.41F
WAUTOMA        CLOUDY   -13 -18  79 CALM      30.41F
WISC RAPIDS    CLOUDY    -8 -14  74 CALM      30.38F
CAMP DOUGLAS   CLOUDY   -10 -12  89 E3        30.36F
$$

WIZ011>013-019>022-031-037>040-048>050-140800-
NORTHEAST WISCONSIN

CITY           SKY/WX    TMP DP  RH WIND       PRES   REMARKS
ANTIGO         CLOUDY   -16 -21  78 CALM      30.32F
SHAWANO        PTCLDY    -4 -10  76 CALM      30.42F
OCONTO         CLOUDY   -10 -14  82 CALM      30.44S
STURGEON BAY   CLOUDY     1  -9  60 CALM      30.44S
GREEN BAY      CLOUDY    -6 -12  75 CALM      30.44F
MANITOWOC      CLOUDY     0  -7  72 CALM      30.45F
APPLETON       CLOUDY     1 -13  51 CALM      30.38F
CLINTONVILLE   PTCLDY    -6 -13  71 CALM      30.41F
OSHKOSH        CLOUDY    -2 -10  69 S5        30.42F WCI -12
$$

WIZ032>034-041-042-053>061-140800-
SOUTHWEST WISCONSIN

CITY           SKY/WX    TMP DP  RH WIND       PRES   REMARKS
LA CROSSE      CLOUDY     4  -7  60 E6        30.37F WCI  -7
SPARTA         CLOUDY    -8 -13  78 CALM      30.38F
VIROQUA        CLOUDY     4  -7  61 SE9       30.31F WCI -10
BOSCOBEL       CLOUDY     4  -4  69 VRB3      30.40F
PRAIRIE DU CHI CLOUDY     8  -6  52 E5        30.38F WCI   0
PLATTEVILLE    CLOUDY     9   0  67 E8        30.36F WCI  -3
$$

WIZ056-057-062-063-064-067-068-140800-
SOUTH CENTRAL WISCONSIN

CITY           SKY/WX    TMP DP  RH WIND       PRES   REMARKS
REEDSBURG      CLOUDY    -5 -10  77 CALM      30.38F
BARABOO/DELLS  CLOUDY    -3 -10  72 CALM      30.38F
LONE ROCK      CLOUDY     2  -6  69 E3        30.41F
MINERAL POINT  CLOUDY     9  -4  56 SE7       30.34F WCI  -3
MADISON        CLOUDY     4  -6  63 SE6       30.40F WCI  -7
MIDDLETON      CLOUDY     3  -3  75 CALM      30.40S
WATERTOWN      CLOUDY     0  -4  80 CALM      30.42S
MONROE         CLOUDY    10   0  61 E6        30.37F WCI   1
JANESVILLE     PTCLDY    10   0  61 SE6       30.41S WCI   1
$$

WIZ051-052-058>065-066-070>072-140800-
SOUTHEAST WISCONSIN

CITY           SKY/WX    TMP DP  RH WIND       PRES   REMARKS
MILWAUKEE      PTCLDY     5  -6  60 CALM      30.45F
WAUKESHA       CLOUDY     0  -6  78 CALM      30.44F
MILWAUKEE/TIMM PTCLDY     3  -4  72 CALM      30.46F
RACINE         CLEAR      4  -6  63 CALM      30.46F
BURLINGTON     CLOUDY    -1  -5  85 CALM      30.43F
KENOSHA        PTCLDY     2  -3  80 NE3       30.44F
FOND DU LAC    PTCLDY    -6 -11  79 S6        30.43F WCI -19
SHEBOYGAN      CLOUDY    -2  -8  76 SW3       30.44F
WEST BEND      CLOUDY    -4  -8  84 CALM      30.43S
JUNEAU         CLOUDY    -1  -6  78 E8        30.42F WCI -15
$$

LSZ147-162-140800-
LAKE SUPERIOR

STATION/POSITION TIME  TEMP    WIND        PRES    WAVE
                       AIR SEA DIR/SP/G            HT/PER
                 (UTC) (F)     (DEG/KT/KT) (MB)    (FT/S)
DEVILS ISLAND    0600    9     190/  7/  9 1030.0R
SAXON HARBOR     0640  -15                 1028.1F
$$

LMZ867-665-643>646-140800-
LAKE MICHIGAN

STATION/POSITION TIME  TEMP    WIND        PRES    WAVE
                       AIR SEA DIR/SP/G            HT/PER
                 (UTC) (F)     (DEG/KT/KT) (MB)    (FT/S)
CHAMBERS ISLAND  0600    0     170/  3/  4 1030.1S
SISTER BAY       0520    4        CALM       N/A
ALGOMA LAKESHORE 0511             CALM       N/A
KEWAUNEE LAKESHO 0600    1     300/  6/  7 1030.1R
SHEBOYGAN LAKESH 0600    5     250/  9/ 10 1033.3F
PORT WASHINGTON  0600    5     280/  4/  5 1032.5F
MILWAUKEE LAKESH 0610   10     290/  4/  5   N/A
KENOSHA   LAKESH 0600    9     280/  5/  6 1031.2F
$$

TC  - TEMPERATURE IN CELSIUS
VSB - VISIBILITY IN STATUTE MILES
WCI - WIND CHILL INDEX
HX  - HEAT INDEX





USA.gov is the U.S. government's official web portal to all federal, state and local government web resources and services.